{"data":{"norad_id":65137,"epoch":"2026-09-21T13:49:31.146816Z","epoch_age_seconds":71884,"freshness":"FRESH","line1":"1 65137U 25171F   26264.57605494  .00003974  00000+0  54975-3 0  9993","line2":"2 65137  51.9030  16.8851 0000513  83.1464 276.9557 14.79953134 61178","mean_motion":14.79953134,"eccentricity":5.13e-5,"inclination_deg":51.903,"raan_deg":16.8851,"arg_perigee_deg":83.1464,"mean_anomaly_deg":276.9557,"bstar":0.00054975,"rev_number":6117,"period_min":97.300378432119,"perigee_km":629.11258150139,"apogee_km":629.83156219216,"semimajor_km":7007.6090718468,"source":"CELESTRAK","updated_at":"2026-09-22T09:00:30.150397Z"}}